OBJECT B, 52717

Orbit data source: Space-Track

You're viewing an Uncataloged Satellite

Recently launched and/or uncataloged satellites may have evolving metadata. Metadata may include but not limited to: Owner, Maufacturer, Bus, Motor, and Mission.

OBJECT B, 52717 is a satellite owned by CAST (CN) in LEO that was launched on Fri, 20 May 2022 UTC via a CHANG ZHENG 2C/YZ-1S launch vehicle from the Jiuquan Satellite Launch Center, China (JSC). Unknown objects in Earth's orbit typically refer to objects detected orbiting the Earth but have not yet been identified or cataloged. These objects could be anything from previously untracked satellites, spent rocket stages, debris from satellite collisions, or even natural meteoroids temporarily captured by Earth's gravity.

Loading next visibility...
Identifier
52717, 2022-056B
Orbit
LEO
Country
Flag of CNCN / PRC
Related business
Manufacturer
DFH Shenzhen
Mission
Operational Civil Communications
Bus & Motor
Unknown
Mass
~50 kg wet, ~50 kg dry
Launch date (UTC)
2022-05-20 (4 years ago)
Launch vehicle
CHANG ZHENG 2C/YZ-1S
Launch site
Jiuquan Satellite Launch Center, China (JSC)
Object type
Unknown
Shape & HBR
Box + 2 Pan, 1.3 m
Radar Cross Section
2.320 m², Large (>1 m²)

Expand to show TLE details & history
Last TLE update: 23 hours ago

TLE from 23 hours ago
0 OBJECT B
1 52717U 22056B   26172.49404569 -.00000118  00000-0 -28598-3 0  9993
2 52717  86.0079  97.2833 0045955  30.2586 330.1189 13.29590130198880
Epoch: 2026-06-21T11:51Z
TLE epoch observation values (Epoch: 2026-06-21T11:51:25.547Z)
Latitude
-0.00005°
Longitude
9.73334°
Altitude
1,121.249 km
Speed
7.306 km/s
True Right ascension
06h 29m 07s
True Declination
0° 00' 00"
Sunlit
Object was in daylight at epoch
Visualization orbit readout
Latitude
Unknown
Longitude
Unknown
Altitude
Unknown
Speed
Unknown
Apparent Right ascension
Unknown
Apparent Declination
Unknown
Sunlit
N/A
Visualization observer readout
Local Sidereal Time
21:57:14
Azimuth
Unknown
Elevation
Unknown
Doppler factor
Unknown
Orbital elements
Apogee altitude
1,180.006 km
Perigee altitude
1,110.857 km
Semi-major axis
7,523.569 km
Eccentricity
0.0046
Inclination
86.0079°
RAAN
97.2833°
Arg. of periapsis
30.2586°
True anomaly
329.85523°
Mean anomaly
330.1189°
Eccentric anomaly
329.9872°
Mean motion
3.32589 °/min
Orbital period
108.24 mins
BSTAR
-0.00028598
Loading maneuver chart data...
Computing Atmospheric mass density...
Loading historical data...
Loading historical data...
Loading historical data...
Loading historical data...
Loading historical data...
Loading historical data...
Loading historical data...
Other satellites on launch #56 in the year 2022 (2022-05-20 UTC)

Documentation

Showing up to 5 results
|